Time,TemperatureF,DewpointF,PressureIn,WindDirection,WindDirectionDegrees,WindSpeedMPH,WindSpeedGustMPH,Humidity,HourlyPrecipIn,Conditions,Clouds,dailyrainin,SoftwareType,DateUTC
2013-03-31 21:16:00,42.3,21.9,29.94,ENE,71,7.0,7.0,44,0.00,,,0.00,Wunderground v.1.13,2013-04-01 03:16:00,
2013-03-31 21:20:00,42.1,21.7,29.94,East,84,6.0,6.0,44,0.00,,,0.00,Wunderground v.1.13,2013-04-01 03:20:00,
2013-03-31 21:30:00,41.5,21.2,29.94,ENE,69,3.0,14.0,44,0.00,,,0.00,Wunderground v.1.13,2013-04-01 03:30:00,
2013-03-31 21:35:00,41.3,21.5,29.97,NE,40,3.0,14.0,45,0.00,,,0.00,Wunderground v.1.13,2013-04-01 03:35:00,
2013-03-31 21:40:00,41.1,21.3,29.97,NE,44,2.0,2.0,45,0.00,,,0.00,Wunderground v.1.13,2013-04-01 03:40:00,
2013-03-31 21:45:00,40.8,21.6,29.97,NE,39,2.0,14.0,46,0.00,,,0.00,Wunderground v.1.13,2013-04-01 03:45:00,
2013-03-31 21:50:00,40.5,21.3,29.97,NE,54,4.0,16.0,46,0.00,,,0.00,Wunderground v.1.13,2013-04-01 03:50:00,
2013-03-31 21:55:00,40.1,21.5,29.97,NE,36,6.0,14.0,47,0.00,,,0.00,Wunderground v.1.13,2013-04-01 03:55:00,
2013-03-31 22:00:00,39.6,21.5,29.97,NNE,22,5.0,5.0,48,0.00,,,0.00,Wunderground v.1.13,2013-04-01 04:00:00,
2013-03-31 22:05:00,39.1,21.5,29.98,NNE,32,5.0,14.0,49,0.00,,,0.00,Wunderground v.1.13,2013-04-01 04:05:00,
2013-03-31 22:10:00,38.6,21.5,29.98,NE,42,9.0,9.0,50,0.00,,,0.00,Wunderground v.1.13,2013-04-01 04:10:00,
2013-03-31 22:15:00,38.2,21.6,29.98,NNE,21,10.0,14.0,51,0.00,,,0.00,Wunderground v.1.13,2013-04-01 04:15:00,
2013-03-31 22:20:00,38.0,21.9,30.00,NE,45,9.0,9.0,52,0.00,,,0.00,Wunderground v.1.13,2013-04-01 04:20:00,
2013-03-31 22:25:00,37.8,22.2,30.00,NE,46,9.0,14.0,53,0.00,,,0.00,Wunderground v.1.13,2013-04-01 04:25:00,
2013-03-31 22:30:00,37.5,22.3,30.00,ENE,71,9.0,14.0,54,0.00,,,0.00,Wunderground v.1.13,2013-04-01 04:30:00,
2013-03-31 22:35:00,37.2,22.1,30.01,NE,46,9.0,14.0,54,0.00,,,0.00,Wunderground v.1.13,2013-04-01 04:35:00,
2013-03-31 22:40:00,37.0,22.3,30.01,NE,44,9.0,14.0,55,0.00,,,0.00,Wunderground v.1.13,2013-04-01 04:40:00,
2013-03-31 22:45:00,36.8,22.1,30.01,NE,42,8.0,14.0,55,0.00,,,0.00,Wunderground v.1.13,2013-04-01 04:45:00,
2013-03-31 22:50:00,36.6,22.4,30.01,NE,48,6.0,16.0,56,0.00,,,0.00,Wunderground v.1.13,2013-04-01 04:50:00,
2013-03-31 22:55:00,36.6,22.4,30.01,ENE,57,5.0,5.0,56,0.00,,,0.00,Wunderground v.1.13,2013-04-01 04:55:00,
2013-03-31 23:00:00,36.5,22.3,30.01,NNE,31,3.0,3.0,56,0.00,,,0.00,Wunderground v.1.13,2013-04-01 05:00:00,
2013-03-31 23:05:00,36.3,22.5,30.02,NNE,31,2.0,2.0,57,0.00,,,0.00,Wunderground v.1.13,2013-04-01 05:05:00,
2013-03-31 23:10:00,36.2,22.4,30.02,ENE,63,1.0,14.0,57,0.00,,,0.00,Wunderground v.1.13,2013-04-01 05:10:00,
2013-03-31 23:15:00,36.2,22.4,30.02,ENE,71,3.0,14.0,57,0.00,,,0.00,Wunderground v.1.13,2013-04-01 05:15:00,
2013-03-31 23:20:00,36.0,22.2,30.03,NE,44,3.0,14.0,57,0.00,,,0.00,Wunderground v.1.13,2013-04-01 05:20:00,
2013-03-31 23:25:00,35.9,22.5,30.03,NE,38,2.0,14.0,58,0.00,,,0.00,Wunderground v.1.13,2013-04-01 05:25:00,
2013-03-31 23:30:00,35.9,22.5,30.03,NE,51,3.0,14.0,58,0.00,,,0.00,Wunderground v.1.13,2013-04-01 05:30:00,
2013-03-31 23:40:00,35.8,22.9,30.03,NE,53,2.0,2.0,59,0.00,,,0.00,Wunderground v.1.13,2013-04-01 05:40:00,
2013-03-31 23:45:00,35.6,22.7,30.03,NE,38,1.0,14.0,59,0.00,,,0.00,Wunderground v.1.13,2013-04-01 05:45:00,
2013-03-31 23:50:00,35.6,22.7,30.03,NE,40,3.0,14.0,59,0.00,,,0.00,Wunderground v.1.13,2013-04-01 05:50:00,
2013-03-31 23:55:00,35.5,23.0,30.03,ENE,58,3.0,3.0,60,0.00,,,0.00,Wunderground v.1.13,2013-04-01 05:55:00,